PROFILE

 METAR AND TAF INFORMATION
ADDS - METARS form results

(0626 UTC 19 July 2019)
http://aviationweather.gov/metar/data/
 
DGAA 190600Z 24010KT 9999 BKN011 25/23 Q1014 NOSIG
TAF DGAA 190500Z 1906/2012 27010KT 9999 BKN010 PROB40 1906/1909 5000 -RA BECMG 1911/1913 19015KT BKN025 PROB30 1914/1921 5000 TSRA BKN012CB 

 AIRPORT MAP

 RUNWAY INFORMATION
Runway 03 Runway length 11165 ft Runway width 200 ft
Runway elevation 177 ft Runway displaced threshold 0 ft Runway heading 22
Runway 21 Runway length 11165 ft Runway width 200 ft
Runway elevation 197 ft Runway displaced threshold 1349 ft Runway heading 202

 AIRPORT FREQUENCIES
Type APP Name ACCRA APP Frequency 119.5 MHZ
Type GND Name ACCRA GND Frequency 121.9 MHZ
Type TWR Name ACCRA TWR Frequency 119.1 MHZ

 AIRPORT NEAR NAVIGATION AIDS
Type NDB Name Accra Frequency 409 KHZ
Type VOR-DME Name Accra Frequency 113100 KHZ